Current Conditions for Foresthill, CA. Overcast, Dry   
Visibility: 7 miles
Cloud ht: 250 ft Foresthill Advisory text: No Warning

  Summary / Temperature 

Current Temperature
53.0°F
11.7°C
(24/hr Ago)
49.3°F
(Apparent temp)
52.1°F
Cool
Wind Chill Graphs
53.0°F 

55.5°F/ 13.1°C
 --- Virtual Temp: 55.7°F ---

 Temp Rate:

 24/hr Difference:

 Avg Running Temp:

 Todays High:

 Todays Low:

 Y-days High:

 Y-days Low:

 Todays WChill:

 Y-days WChill:

 Evapotranspiration:

-0.8°F/hr 

+3.7°F

53.8°F

65.5°F 5:10pm

45.6°F 6:25am

59.8°F 4:27pm

49.1°F 11:59pm

42.7°F 6:18am

45.7°F 10:44pm

0.152 in

115' Above Ground

 Temperature:

 6'AGL VRS 115'AGL:

 Avg Running Temp:

 Humidity:

 Todays High:

 Todays Low:

 Y-days High:

 Y-days Low:

53.0°F 

+1°F

53.3°F

87% 

68.0°F 5:09pm

48.0°F 3:25am

61.0°F 2:11pm

50.0°F 12:16am

Temp & Humidity Graphs

  Wind 

Wind Speed

 1.0 mph

Gusting to

 8.0 mph

Wind from E

87°  E

Light air

 Avg speed:

 Wind Run:

 Peak Gust:

  2.0 mph 

38.0 miles

  19.0 mph 5:43pm

  Almanac  

Moon age: 17 days,22 hours,42 minutes,89%

Waning Gibbous
82%
Illuminated
18 days in cycle

 Moonrise:

 Moonset:

 Sunrise:

 Sunset:

 Solar Noon:

11:31pm

9:02am

5:41am

8:17pm

1:00pm

1min 23s more daylight tomorrow 

  Solar Radiation 

(Current Solar)
  No Sun Light
(Todays High)
 1317 W/m2@12:19pm

Rain

 Rain Today:

 Rain Rate (/hr):

 Rain last hour:

 Rain Yesterday:

 This Month:

 Season Total:

1 Day Since Last Dry Day

0.12 in

0.000 in

0.00 in

0.05 in

1.10 in

50.01 in

Updated Time

Updated: 5/25/16  11:43pm

(Updated  sec ago)

Humidity & Barometer

 Humidity:

 Wetbulb:

 Dew Point:

 Barometer:

91% 

51.6°F 

50.4°F 

30.122 inHg 

 Baro Trend:  Steady 
Northern Calif
Preparedness
Fire 
Level 

    UV Index  

(Current UV)
0.0  None
(Todays High) @ 1:03pm
10.1   Very High

Weather Underground 5 day Forecast

Thu Fri Sat Sun Mon
Mostly Cloudy Partly Cloudy Partly Cloudy Partly Cloudy Partly Cloudy
Mostly Cloudy Partly Cloudy Partly Cloudy Partly Cloudy Partly Cloudy
78° 81° 84° 87° 90°
53° 55° 59° 62° 62°

Foresthill Probe 2 Stats  
Foresthill Probe 2: is located on Thomas Street
at 3000 feet. The main Foresthill Weather site
is located on Melody ln at the 2860 foot elevation

Calm
52.2°F
11.2°C
Temp Rate:
-0.4°F
Calm
Gusting to
1.0 mph
(Humidity)
96%
Wind from SE
140°  SE
Updated: 25/05/16 - 23:42:02
 Todays High: 67.1°F 14:49
 Todays Low: 43.9°F 05:24
 Rain Today: 0.08 in
 Season Total: 50.87 in

Foresthill Wx: Monthly,Yearly, Highs and Lows 

Foresthill  
This Weather Data is coming from the main Foresthill
Weather site located on Melody ln at the 2860 foot
elevation
Not Foresthill Probe 2
Weather Data
Month
  High
Month
  Low
Year
High
Year
Low
Temp 81.1°F
5/12/16
39.8°F
5/20/16
82.3°F
4/6/16
28.4°F
2/1/16
Humidity 94%
5/6/16
27%
5/11/16
100%
1/6/16
22%
2/29/16
Heat Index 80.6°F
5/12/16
45.3°F
5/20/16
80.7°F
4/6/16
33.3°F
2/1/16
Wind Chill 81.1°F
5/12/16
30.9°F
5/20/16
82.3°F
4/6/16
15.8°F
2/1/16
Wind Gust 32 mph
5/20/16
0 mph
5/1/16
48 mph
2/17/16
0 mph
1/1/16
Barometer 30.14 in
5/22/16
29.59 in
5/20/16
30.56 in
2/3/16
29.44 in
2/17/16
ET 0.23 in
5/11/16
0.00 in
5/1/16
0.23 in
4/6/16
0.00 in
1/1/16
Dew Point 58.4°F
5/13/16
31.7°F
5/11/16
58.4°F
5/13/16
19.9°F
1/1/16
Infrared Satellite Regional Radar Satellite Imagery Sacramento,CA.  (click to enlarge)
NWS Weather Forecast - Outlook: Tonight and Thursday
Tonight

Tonight: Partly cloudy, with a low around 49. Calm wind.
Partly Cloudy


Lo 49 °F
NWS forecast: Partly cloudy, with a low around 49. Calm wind.
Thursday

Thursday: A 20 percent chance of showers and thunderstorms after 11am.  Mostly sunny, with a high near 70. Calm wind becoming west 5 to 7 mph in the afternoon.  New rainfall amounts of less than a tenth of an inch, except higher amounts possible in thunderstorms.
Slight Chance
T-storms

Hi 70 °F
NWS forecast: A 20 percent chance of showers and thunderstorms after 11am. Mostly sunny, with a high near 70. Calm wind becoming west 5 to 7 mph in the afternoon. New rainfall amounts of less than a tenth of an inch, except higher amounts possible in thunderstorms.
NWS Weather Forecast - Summary
Updated: Wednesday, May 25, 2016 - 3:06pm (PDT)
YR.NO 10 Day Weather forecast
Last update: 05/25/2016 @ 12:33
Next update: 05/26/2016 @ 01:00
Provided by: 22
      Temperature Precipitation Pressure Wind  
Today
05/25/2016
23:00 05:00 50°F   30.07 inHg Light air from east 3 mph
    (Click to enlarge)
meteogram

    Forecast for next 9 days

      Temperature Precip Pressure Wind  
Thursday
05/26/2016
05:00 11:00 45°F   30.02 inHg Light breeze from east-northeast 5 mph
  11:00 17:00 66°F   30.01 inHg Light breeze from west 6 mph
  17:00 23:00 70°F   29.94 inHg Light breeze from west 4 mph
  23:00 05:00 55°F   29.96 inHg Light air from east 2 mph
      Temperature Precip Pressure Wind  
Friday
05/27/2016
05:00 11:00 48°F   29.91 inHg Light breeze from east-northeast 6 mph
  11:00 17:00 72°F   29.89 inHg Light breeze from west 6 mph
  17:00 23:00 73°F   29.81 inHg Light breeze from west 6 mph
  23:00 05:00 55°F   29.82 inHg Light breeze from east-northeast 4 mph
      Temperature Precip Pressure Wind  
Saturday
05/28/2016
05:00 11:00 48°F   29.80 inHg Light breeze from east-northeast 6 mph
  11:00 17:00 73°F   29.82 inHg Light breeze from southwest 5 mph
  17:00 23:00 75°F   29.80 inHg Light breeze from southwest 5 mph
  23:00 05:00 57°F   29.87 inHg Light air from east 3 mph
      Temperature Precip Pressure Wind  
Sunday
05/29/2016
05:00 11:00 50°F   29.87 inHg Light breeze from east-northeast 6 mph
  11:00 17:00 77°F   29.92 inHg Light breeze from west 4 mph
  17:00 23:00 79°F   29.89 inHg Light breeze from west-southwest 5 mph
  23:00 05:00 63°F   29.96 inHg Light air from east 3 mph
      Temperature Precip Pressure Wind  
Monday
05/30/2016
05:00 11:00 54°F   29.93 inHg Light breeze from east-northeast 7 mph
  11:00 17:00 81°F   29.92 inHg Light breeze from west 5 mph
  17:00 23:00 82°F   29.85 inHg Light breeze from west 5 mph
  23:00 05:00 64°F   29.88 inHg Light air from east 3 mph
      Temperature Precip Pressure Wind  
Tuesday
05/31/2016
05:00 11:00 55°F   29.81 inHg Light breeze from east-northeast 7 mph
  11:00 17:00 82°F   29.82 inHg Light breeze from west-southwest 5 mph
  17:00 23:00 84°F   29.75 inHg Light breeze from southwest 4 mph
  23:00 05:00 66°F   29.81 inHg Light air from east 2 mph
      Temperature Precip Pressure Wind  
Wednesday
06/01/2016
05:00 11:00 55°F   29.78 inHg Light breeze from east-northeast 5 mph
  11:00 17:00 82°F   29.83 inHg Light breeze from southwest 5 mph
  17:00 23:00 82°F   29.81 inHg Light breeze from southwest 6 mph
  23:00 05:00 63°F   29.87 inHg Light air from east 2 mph
      Temperature Precip Pressure Wind  
Thursday
06/02/2016
05:00 11:00 55°F   29.86 inHg Light breeze from east-northeast 4 mph
  11:00 17:00 81°F   29.90 inHg Light breeze from west-southwest 5 mph
  17:00 23:00 82°F   29.87 inHg Light breeze from west-southwest 6 mph
  23:00 05:00 64°F   29.92 inHg Light air from east-northeast 2 mph
      Temperature Precip Pressure Wind  
Friday
06/03/2016
05:00 11:00 55°F   29.91 inHg Light breeze from east-northeast 5 mph
  11:00 17:00 84°F   29.90 inHg Light breeze from west 6 mph
  17:00 23:00 86°F   29.87 inHg Light breeze from west-southwest 6 mph
  23:00 05:00 66°F   29.93 inHg Light air from east 3 mph

Weather History For Thursday, May 26, 2016


On this Day - In Weather History ...
Data courtesy of weatherforyou.com
powered by Cumulus v1.9.3 (1059)
Ambient Weather VWS v14.00
Top Contact Website Map Copyright © 2007 - 2016 Foresthillweather.com Never base important decisions on this or any weather information obtained from the Internet